Weather History for KTIW - March, 2013

Change the Weather History Date:

Sunday, March 10, 2013

  Actual Average Record
Temperature  
Mean Temperature 42 °F -  
Max Temperature 45 °F 48 °F 61 °F (2005)
Min Temperature 39 °F 39 °F 28 °F (2009)
Degree Days  
Heating Degree Days 23    
Moisture  
Dew Point 38 °F    
Average Humidity 84    
Maximum Humidity 93    
Minimum Humidity 76    
Precipitation  
Precipitation 0.03 in - - ()
Sea Level Pressure  
Sea Level Pressure 30.46 in    
Wind  
Wind Speed 1 mph (South)    
Max Wind Speed 6 mph    
Max Gust Speed -    
Visibility 10 miles    
Events Rain    
Averages and records for this station are not official NWS values.
T = Trace of Precipitation, MM = Missing Value Source: NWS Daily Summary

Daily Weather History Graph

Daily Weather History Graph

Search for Another Location

Airport or City:

Trip Planner

Search our weather history database for the weather conditions in past years. The results will help you decide how hot, cold, wet, or windy it might be!

Date:

Astronomy

Mar. 10, 2013 Rise Set
Actual Time 7:32 AM PDT 7:09 PM PDT
Civil Twilight 7:01 AM PDT 7:39 PM PDT
Nautical Twilight 6:26 AM PDT 8:15 PM PDT
Astronomical Twilight 5:50 AM PDT 8:51 PM PDT
Moon 6:37 AM PDT (3/10) 6:22 PM PDT (3/10)
Length of Visible Light 12h 37m
Length of Day
11h 36m
Waning Crescent, 1% of the Moon is Illuminated
Mar 10
Waning Crescent
Mar 11
New
Mar 19
First Quarter
Mar 27
Full
Apr 2
Last Quarter

Hourly Weather History & Observations

Time (PDT) Temp. Windchill Dew Point Humidity Pressure Visibility Wind Dir Wind Speed Gust Speed Precip Events Conditions
12:53 AM 39.9 °F - 34.0 °F 79% 30.51 in 10.0 mi Calm Calm - N/A   Clear
1:53 AM 39.9 °F - 34.0 °F 79% 30.50 in 10.0 mi Calm Calm - N/A   Clear
3:53 AM 39.9 °F - 36.0 °F 86% 30.49 in 10.0 mi Calm Calm - N/A   Clear
5:53 AM 39.9 °F - 36.0 °F 86% 30.50 in 10.0 mi Calm Calm - N/A   Overcast
6:53 AM 39.9 °F - 36.0 °F 86% 30.49 in 10.0 mi Calm Calm - 0.01 in Rain Light Rain
7:53 AM 39.9 °F 37.8 °F 37.0 °F 89% 30.48 in 9.0 mi South 3.5 mph - 0.00 in   Overcast
8:53 AM 39.9 °F 36.7 °F 37.0 °F 89% 30.48 in 10.0 mi South 4.6 mph - N/A   Mostly Cloudy
9:53 AM 41.0 °F 38.0 °F 37.0 °F 86% 30.48 in 10.0 mi South 4.6 mph - 0.00 in Rain Light Rain
10:53 AM 41.0 °F - 37.0 °F 86% 30.48 in 8.0 mi Calm Calm - 0.01 in Rain Light Rain
11:53 AM 43.0 °F - 39.0 °F 86% 30.48 in 10.0 mi Calm Calm - 0.00 in   Overcast
12:53 PM 43.0 °F 41.3 °F 37.9 °F 82% 30.48 in 10.0 mi SSE 3.5 mph - 0.00 in Rain Light Rain
1:53 PM 43.0 °F 39.5 °F 37.9 °F 82% 30.47 in 10.0 mi South 5.8 mph - 0.01 in   Overcast
2:53 PM 44.1 °F - 37.9 °F 79% 30.46 in 10.0 mi Calm Calm - N/A   Overcast
3:53 PM 45.0 °F 43.5 °F 39.0 °F 80% 30.45 in 10.0 mi South 3.5 mph - N/A   Overcast
4:53 PM 45.0 °F - 37.9 °F 76% 30.45 in 10.0 mi Calm Calm - N/A   Overcast
5:53 PM 45.0 °F - 37.9 °F 76% 30.45 in 10.0 mi Calm Calm - N/A   Overcast
6:53 PM 45.0 °F - 39.0 °F 80% 30.45 in 10.0 mi Calm Calm - N/A   Overcast
7:53 PM 44.1 °F - 39.0 °F 82% 30.45 in 10.0 mi Calm Calm - N/A   Overcast
8:27 PM 44.6 °F - 39.2 °F 81% 30.44 in 8.0 mi Calm Calm - N/A   Overcast
8:53 PM 44.1 °F - 39.9 °F 85% 30.45 in 10.0 mi Calm Calm - N/A   Overcast
9:02 PM 44.6 °F - 39.2 °F 81% 30.44 in 10.0 mi Calm Calm - N/A   Overcast
9:53 PM 43.0 °F - 39.9 °F 89% 30.44 in 10.0 mi Calm Calm - N/A   Overcast
10:53 PM 43.0 °F - 39.9 °F 89% 30.45 in 7.0 mi Calm Calm - N/A   Overcast
11:18 PM 42.8 °F - 41.0 °F 93% 30.43 in 7.0 mi Calm Calm - N/A   Overcast
11:53 PM 44.1 °F - 41.0 °F 89% 30.44 in 9.0 mi Calm Calm - N/A   Overcast
12:53 AM 44.1 °F - 41.0 °F 89% 30.44 in 8.0 mi Calm Calm - N/A   Overcast